Regional Weather Roundup
Issued by NWS

Home | Current Version | Previous Version | Text Only | Print | Product List | Glossary On
Versions: 1 2 3 4 5 6 7 8 9 10 11 12 13 14 15 16 17 18 19 20 21 22 23 24 25 26 27 28 29 30 31 32 33 34 35 36 37 38 39 40 41 42 43 44 45 46 47 48 49 50
000
ASUS46 KSEW 300010
RWRWA

WASHINGTON REGIONAL WEATHER ROUNDUP
NATIONAL WEATHER SERVICE SEATTLE WA
500 PM PDT WED JUL 29 2015

NOTE:"FAIR" INDICATES FEW OR NO CLOUDS BELOW 12,000 FEET WITH NO
SIGNIFICANT WEATHER AND/OR OBSTRUCTIONS TO VISIBILITY.

WAZ505-507>509-300100-
SEATTLE, TACOMA, EVERETT, AND VICINITY

CITY           SKY/WX    TMP DP  RH WIND       PRES   REMARKS
EVERETT        SUNNY     83  51  33 N10G16    30.14F
6HR MIN TEMP:  71; 6HR MAX TEMP:  84;

BOEING FIELD   SUNNY     88  50  27 NW8G16    30.09F
6HR MIN TEMP:  75; 6HR MAX TEMP:  89;

RENTON         SUNNY     87  52  29 NW12      30.08F
6HR MIN TEMP:  75; 6HR MAX TEMP:  88;

SEATAC AIRPORT SUNNY     90  48  23 N12       30.11F
6HR MIN TEMP:  75; 6HR MAX TEMP:  90;

JBLM-MCCHORD   NOT AVBL
PUYALLUP       FAIR      90  48  24 VRB6G13   30.11F
BREMERTON      SUNNY     88  43  20 N8G16     30.14F
6HR MIN TEMP:  75; 6HR MAX TEMP:  88;

JBLM-FT LEWIS  SUNNY     89  42  19 N12       30.09F
6HR MIN TEMP:  76; 6HR MAX TEMP:  90;

TACOMA NARROWS SUNNY     87  43  21 N13       30.10F
6HR MIN TEMP:  73; 6HR MAX TEMP:  87;

$$

WAZ001-503-506-510-514-515-300100-
NORTH INTERIOR

CITY           SKY/WX    TMP DP  RH WIND       PRES   REMARKS
BELLINGHAM     SUNNY     86  54  33 W8        30.12F
6HR MIN TEMP:  75; 6HR MAX TEMP:  86;

FRIDAY HARBOR  SUNNY     76  54  46 SE3       30.14F
6HR MIN TEMP:  65; 6HR MAX TEMP:  83;

EASTSOUND      SUNNY     72  55  56 N5        30.12S
PORT ANGELES   SUNNY     73  53  49 N5        30.15F
6HR MIN TEMP:  72; 6HR MAX TEMP:  80;

PORT TOWNSEND  FAIR      84  50  30 W6        30.12F
NAS WHIDBEY    MOSUNNY   75  54  47 W7        30.17F
6HR MIN TEMP:  65; 6HR MAX TEMP:  75;

ARLINGTON      SUNNY     88  48  25 NW14      30.11F
6HR MIN TEMP:  75; 6HR MAX TEMP:  88;

BURLINGTON     SUNNY     84  52  32 W10       30.12S
$$

WAZ020-022-039-040-504-511-512-300100-
SOUTHWEST INTERIOR

CITY           SKY/WX    TMP DP  RH WIND       PRES   REMARKS
SHELTON        SUNNY     92  48  22 NW9       30.07F
6HR MIN TEMP:  78; 6HR MAX TEMP:  93;

OLYMPIA        SUNNY     90  41  18 NE8       30.09F
6HR MIN TEMP:  76; 6HR MAX TEMP:  91;

CHEHALIS       FAIR      93  48  21 VRB7G16   30.07F HX  90
KELSO          NOT AVBL
VANCOUVER      SUNNY     95  48  20 NW14G20   29.99F HX  91
6HR MIN TEMP:  78; 6HR MAX TEMP:  96;

SCAPPOOSE, OR  SUNNY     96  47  18 N12       30.00F HX  92
6HR MIN TEMP:  82; 6HR MAX TEMP:  97;

PORTLAND, OR   SUNNY     96  52  22 NW13G21   29.99F HX  93
6HR MIN TEMP:  78; 6HR MAX TEMP:  97;

$$

WAZ021-516-517-300100-
WASHINGTON COAST

CITY           SKY/WX    TMP DP  RH WIND       PRES   REMARKS
FORKS          SUNNY     79  55  43 NW14      30.14F
6HR MIN TEMP:  74; 6HR MAX TEMP:  82;

HOQUIAM        SUNNY     82  56  40 W10       30.10F
6HR MIN TEMP:  70; 6HR MAX TEMP:  82;

ASTORIA, OR    SUNNY     78  56  46 NW22      30.06F
6HR MIN TEMP:  74; 6HR MAX TEMP:  83;

$$

WAZ019-023-024-040-518-519-300100-
CASCADE MOUNTAINS AND COLUMBIA GORGE

CITY           SKY/WX    TMP DP  RH WIND       PRES   REMARKS
TROUTDALE, OR  SUNNY     97  51  21 NW7G16    29.96F HX  94
6HR MIN TEMP:  79; 6HR MAX TEMP:  98;

THE DALLES, OR SUNNY     98  28   8 CALM      29.99F HX  92
6HR MIN TEMP:  80; 6HR MAX TEMP:  99;

$$

WAZ026-027-041>044-520-521-300100-
EAST SLOPES

CITY           SKY/WX    TMP DP  RH WIND       PRES   REMARKS
OMAK           MOSUNNY   94  30  10 S9        30.04F
6HR MIN TEMP:  79; 6HR MAX TEMP:  95;

WENATCHEE      SUNNY     92  42  17 SE10      30.05F
6HR MIN TEMP:  79; 6HR MAX TEMP:  93;

ELLENSBURG     SUNNY     95  29   9 SE6       30.09F
6HR MIN TEMP:  80; 6HR MAX TEMP:  96;

YAKIMA         SUNNY     94  33  11 E7        30.06F
6HR MIN TEMP:  83; 6HR MAX TEMP:  95;

$$

WAZ028-034-035-300100-
COLUMBIA BASIN

CITY           SKY/WX    TMP DP  RH WIND       PRES   REMARKS
EPHRATA        SUNNY     92  35  13 MISG      30.07F
6HR MIN TEMP:  81; 6HR MAX TEMP:  93;

MOSES LAKE     SUNNY     92  36  14 SW9       30.08F
6HR MIN TEMP:  79; 6HR MAX TEMP:  92;

PASCO          SUNNY     96  39  13 NE8       30.04F HX  91
6HR MIN TEMP:  80; 6HR MAX TEMP:  96;

HERMISTON, OR  SUNNY     95  37  13 NE7       30.04F HX  90
6HR MIN TEMP:  80; 6HR MAX TEMP:  96;

$$

WAZ036>038-300100-
NORTHEAST WASHINGTON

CITY           SKY/WX    TMP DP  RH WIND       PRES   REMARKS
SPOKANE GEIGER MOSUNNY   86  31  13 SW6       30.14F
6HR MIN TEMP:  78; 6HR MAX TEMP:  87;

SPOKANE FELTS  SUNNY     89  32  13 CALM      30.12F
6HR MIN TEMP:  79; 6HR MAX TEMP:  90;

FAIRCHILD AFB  SUNNY     86  32  14 SW13      30.14F
6HR MIN TEMP:  79; 6HR MAX TEMP:  87; 6HR PCP: TRACE;

COEURDALENE,ID SUNNY     88  36  15 W7        30.12F
6HR MIN TEMP:  75; 6HR MAX TEMP:  88;

DEER PARK      SUNNY     88  33  14 W12G17    30.12F
6HR MIN TEMP:  77; 6HR MAX TEMP:  89;

$$

WAZ029>033-300100-
SOUTHEAST WASHINGTON

CITY           SKY/WX    TMP DP  RH WIND       PRES   REMARKS
PULLMAN        SUNNY     85  32  15 W5        30.17F
6HR MIN TEMP:  78; 6HR MAX TEMP:  87;

LEWISTON, ID   SUNNY     93  32  11 CALM      30.08F
6HR MIN TEMP:  77; 6HR MAX TEMP:  93;

WALLA WALLA    SUNNY     95  34  11 VRB7      30.07F HX  90
6HR MIN TEMP:  83; 6HR MAX TEMP:  95;

PENDLETON, OR  SUNNY     92  33  12 N13G18    30.07F
6HR MIN TEMP:  82; 6HR MAX TEMP:  94;

$$



USA.gov is the U.S. government's official web portal to all federal, state and local government web resources and services.